User: anonymous   Login
Location: Roland
(31.1349°N, 85.4372°W)
Time: 22:55:36
(UTC+00:00)
Language:

Altair - Orbit

View from above orbital plane
View from above orbital plane
View from above satellite
View from above satellite

Ground track
Ground track

The orbit data is extracted from the following two-line orbital elements,

1 00050U 60009B   21108.48137046 -.00000072  00000-0  12560-3 0  9992
2 00050  47.2304 254.5651 0114050 154.7944 205.8469 12.20116613707461
Epoch (UTC): 18 April 2021 11:33:10
Eccentricity: 0.0114050
inclination: 47.2304°
perigee height: 1501 km
apogee height: 1683 km
right ascension of ascending node: 254.5651°
argument of perigee: 154.7944°
revolutions per day: 12.20116613
mean anomaly at epoch: 205.8469°
orbit number at epoch: 70746

The dashed part of the orbit path shows where the satellite is in the earth's shadow,  

DLR